When you browse on this site, cookies collect data to enhance your experience and personalize the content and advertising you see.
Visit our Privacy Policy to learn more. By continuing to use the site, you agree to this use of cookies and data.
  • En España
  • Lista de países
  • Para 7 días
  • Temperatura del agua
  • Mapa Satelital
  • El tiempo en el mapa
  • Informadores
  • user-avatar
    Iniciar sesión

    Tiempo cada hora Santa Cruz

    Hoy, 21 Enero, Lunes

    Tiempo Temperatura Precipitaciones Viento Presión Humedad
    00:00 +24°C° 0 mm 1 mps 723 mmHg 66%
    01:00 +24°C° 0 mm 1 mps 723 mmHg 66%
    02:00 +24°C° 0 mm 1 mps 723 mmHg 67%
    03:00 +24°C° 0 mm 1 mps 723 mmHg 67%
    04:00 +23°C° 0 mm 1 mps 723 mmHg 68%
    05:00 +23°C° 0 mm 2 mps 723 mmHg 69%
    06:00 +25°C° 0 mm 2 mps 723 mmHg 66%
    07:00 +26°C° 0 mm 3 mps 723 mmHg 63%
    08:00 +27°C° 0 mm 3 mps 724 mmHg 60%
    09:00 +29°C° 0 mm 4 mps 724 mmHg 55%
    10:00 +32°C° 0 mm 4 mps 724 mmHg 50%
    11:00 +34°C° 0 mm 5 mps 724 mmHg 45%
    12:00 +35°C° 0 mm 5 mps 723 mmHg 43%
    13:00 +36°C° 0 mm 5 mps 722 mmHg 42%
    14:00 +37°C° 0 mm 5 mps 722 mmHg 40%
    15:00 +36°C° 0 mm 4 mps 721 mmHg 42%
    16:00 +36°C° 0 mm 4 mps 721 mmHg 43%
    17:00 +36°C° 0 mm 4 mps 720 mmHg 45%
    18:00 +34°C° 0 mm 3 mps 721 mmHg 51%
    19:00 +31°C° 0 mm 2 mps 721 mmHg 57%
    20:00 +29°C° 0 mm 2 mps 722 mmHg 63%
    21:00 +29°C° 0 mm 2 mps 722 mmHg 65%
    22:00 +28°C° 0 mm 2 mps 723 mmHg 68%
    23:00 +27°C° 0 mm 1 mps 724 mmHg 71%

    Mañana, 22 Enero, Martes

    Tiempo Temperatura Precipitaciones Viento Presión Humedad
    00:00 +27°C° 0 mm 1 mps 723 mmHg 72%
    01:00 +26°C° 0 mm 1 mps 723 mmHg 74%
    02:00 +26°C° 0 mm 1 mps 723 mmHg 76%
    03:00 +26°C° 0 mm 1 mps 723 mmHg 76%
    04:00 +26°C° 0 mm 2 mps 723 mmHg 77%
    05:00 +26°C° 0 mm 2 mps 723 mmHg 77%
    06:00 +27°C° 0 mm 2 mps 723 mmHg 73%
    07:00 +28°C° 0 mm 2 mps 724 mmHg 68%
    08:00 +30°C° 0 mm 3 mps 724 mmHg 63%
    09:00 +31°C° 0 mm 3 mps 724 mmHg 57%
    10:00 +34°C° 0 mm 4 mps 724 mmHg 50%
    11:00 +36°C° 0 mm 4 mps 724 mmHg 43%
    12:00 +37°C° 0 mm 4 mps 723 mmHg 42%
    13:00 +37°C° 0 mm 4 mps 723 mmHg 41%
    14:00 +38°C° 0 mm 4 mps 722 mmHg 40%
    15:00 +37°C° 0 mm 4 mps 721 mmHg 42%
    16:00 +37°C° 0 mm 4 mps 721 mmHg 43%
    17:00 +36°C° 0 mm 4 mps 720 mmHg 44%
    18:00 +35°C° 0 mm 4 mps 721 mmHg 50%
    19:00 +33°C° 0 mm 4 mps 721 mmHg 55%
    20:00 +31°C° 0 mm 3 mps 722 mmHg 60%
    21:00 +30°C° 0 mm 3 mps 722 mmHg 63%
    22:00 +29°C° 0 mm 3 mps 723 mmHg 65%
    23:00 +29°C° 0 mm 3 mps 724 mmHg 68%

    Pasado mañana, 23 Enero, Miércoles

    Tiempo Temperatura Precipitaciones Viento Presión Humedad
    00:00 +28°C° 0 mm 3 mps 723 mmHg 71%
    01:00 +28°C° 0 mm 3 mps 723 mmHg 74%
    02:00 +27°C° 0 mm 4 mps 723 mmHg 77%
    03:00 +27°C° 0 mm 4 mps 722 mmHg 77%
    04:00 +27°C° 0 mm 4 mps 722 mmHg 78%
    05:00 +27°C° 0 mm 4 mps 722 mmHg 79%
    06:00 +27°C° 0 mm 4 mps 723 mmHg 77%
    07:00 +28°C° 0 mm 4 mps 723 mmHg 75%
    08:00 +28°C° 0 mm 4 mps 724 mmHg 73%
    09:00 +30°C° 0 mm 4 mps 724 mmHg 66%
    10:00 +33°C° 0 mm 5 mps 724 mmHg 59%
    11:00 +35°C° 0 mm 5 mps 724 mmHg 52%
    12:00 +36°C° 0 mm 5 mps 723 mmHg 49%
    13:00 +36°C° 0 mm 5 mps 722 mmHg 46%
    14:00 +37°C° 0 mm 5 mps 721 mmHg 42%
    15:00 +37°C° 0 mm 5 mps 721 mmHg 43%
    16:00 +37°C° 0 mm 4 mps 720 mmHg 45%
    17:00 +36°C° 0 mm 4 mps 720 mmHg 46%
    18:00 +34°C° 0 mm 3 mps 720 mmHg 52%
    19:00 +33°C° 0 mm 3 mps 721 mmHg 58%
    20:00 +30°C° 0 mm 2 mps 721 mmHg 64%
    21:00 +29°C° 0 mm 2 mps 722 mmHg 66%
    22:00 +29°C° 0 mm 2 mps 722 mmHg 68%
    23:00 +28°C° 0 mm 1 mps 723 mmHg 70%

    24 Enero, Jueves

    Tiempo Temperatura Precipitaciones Viento Presión Humedad
    00:00 +28°C° 0 mm 2 mps 722 mmHg 72%
    01:00 +27°C° 0 mm 2 mps 722 mmHg 73%
    02:00 +27°C° 0 mm 2 mps 722 mmHg 75%
    03:00 +27°C° 0 mm 2 mps 722 mmHg 75%
    04:00 +27°C° 0 mm 2 mps 722 mmHg 76%
    05:00 +27°C° 0 mm 3 mps 722 mmHg 76%
    06:00 +28°C° 0 mm 3 mps 722 mmHg 71%
    07:00 +29°C° 0 mm 3 mps 723 mmHg 65%
    08:00 +30°C° 0 mm 4 mps 723 mmHg 60%
    09:00 +33°C° 0 mm 4 mps 723 mmHg 53%
    10:00 +35°C° 0 mm 4 mps 723 mmHg 46%
    11:00 +37°C° 0 mm 4 mps 723 mmHg 39%
    12:00 +38°C° 0 mm 4 mps 722 mmHg 37%
    13:00 +40°C° 0 mm 4 mps 721 mmHg 35%
    14:00 +41°C° 0 mm 4 mps 720 mmHg 33%
    15:00 +40°C° 0 mm 4 mps 720 mmHg 35%
    16:00 +40°C° 0 mm 4 mps 719 mmHg 36%
    17:00 +38°C° 0 mm 4 mps 719 mmHg 37%
    18:00 +36°C° 0 mm 3 mps 719 mmHg 43%
    19:00 +34°C° 0 mm 2 mps 719 mmHg 49%
    20:00 +31°C° 0 mm 2 mps 720 mmHg 55%
    21:00 +31°C° 0 mm 2 mps 720 mmHg 57%
    22:00 +30°C° 0 mm 2 mps 721 mmHg 59%
    23:00 +29°C° 0 mm 2 mps 721 mmHg 61%

    25 Enero, Viernes

    Tiempo Temperatura Precipitaciones Viento Presión Humedad
    00:00 +29°C° 0 mm 2 mps 721 mmHg 61%
    01:00 +29°C° 0 mm 2 mps 721 mmHg 61%
    02:00 +29°C° 0 mm 3 mps 720 mmHg 62%
    03:00 +29°C° 0 mm 3 mps 720 mmHg 63%
    04:00 +28°C° 0 mm 3 mps 720 mmHg 65%
    05:00 +28°C° 0 mm 3 mps 720 mmHg 67%
    06:00 +29°C° 0 mm 3 mps 721 mmHg 64%
    07:00 +30°C° 0 mm 3 mps 721 mmHg 62%
    08:00 +32°C° 0 mm 4 mps 722 mmHg 59%
    09:00 +34°C° 0 mm 4 mps 722 mmHg 53%
    10:00 +36°C° 0 mm 5 mps 721 mmHg 47%
    11:00 +39°C° 0 mm 5 mps 721 mmHg 40%
    12:00 +39°C° 0 mm 5 mps 720 mmHg 39%
    13:00 +40°C° 0 mm 5 mps 719 mmHg 37%
    14:00 +41°C° 0 mm 5 mps 718 mmHg 35%
    15:00 +40°C° 0 mm 5 mps 718 mmHg 36%
    16:00 +40°C° 0 mm 5 mps 717 mmHg 37%
    17:00 +40°C° 0 mm 4 mps 717 mmHg 38%
    18:00 +37°C° 0 mm 4 mps 717 mmHg 43%
    19:00 +35°C° 0 mm 3 mps 718 mmHg 48%
    20:00 +34°C° 0 mm 2 mps 718 mmHg 53%
    21:00 +33°C° 0 mm 3 mps 719 mmHg 55%
    22:00 +33°C° 0 mm 3 mps 720 mmHg 56%
    23:00 +31°C° 0 mm 3 mps 721 mmHg 58%

    26 Enero, Sábado

    Tiempo Temperatura Precipitaciones Viento Presión Humedad
    00:00 +30°C° 0 mm 3 mps 720 mmHg 62%
    01:00 +30°C° 0 mm 4 mps 720 mmHg 66%
    02:00 +29°C° 0 mm 4 mps 720 mmHg 70%
    03:00 +29°C° 0 mm 4 mps 720 mmHg 73%
    04:00 +28°C° 0 mm 4 mps 720 mmHg 76%
    05:00 +28°C° 0 mm 4 mps 720 mmHg 79%
    06:00 +29°C° 0 mm 4 mps 721 mmHg 77%
    07:00 +29°C° 0 mm 4 mps 721 mmHg 75%
    08:00 +30°C° 0 mm 5 mps 722 mmHg 73%
    09:00 +32°C° 0 mm 5 mps 722 mmHg 66%
    10:00 +34°C° 0 mm 5 mps 722 mmHg 59%
    11:00 +36°C° 0 mm 5 mps 721 mmHg 52%
    12:00 +37°C° 0 mm 5 mps 721 mmHg 49%
    13:00 +38°C° 0 mm 4 mps 720 mmHg 45%
    14:00 +40°C° 0 mm 4 mps 719 mmHg 42%
    15:00 +40°C° 0 mm 4 mps 718 mmHg 42%
    16:00 +38°C° 0 mm 4 mps 718 mmHg 43%
    17:00 +38°C° 0 mm 3 mps 717 mmHg 43%
    18:00 +36°C° 0 mm 3 mps 718 mmHg 49%
    19:00 +35°C° 0 mm 2 mps 718 mmHg 55%
    20:00 +32°C° 0 mm 2 mps 719 mmHg 61%
    21:00 +31°C° 0 mm 2 mps 719 mmHg 63%
    22:00 +31°C° 0 mm 2 mps 720 mmHg 65%
    23:00 +30°C° 0 mm 2 mps 721 mmHg 67%
    Mostrar más